Location: Unspecified
(0.0000°N, 0.0000°E)
Time: 06:47:20
(UTC+00:00)

Courier 1B - Pass Details

Date: 03 October 2023
Orbit: 962 x 1208 km, 28.3° (Epoch: 06 December)

Event Time Altitude Azimuth Distance (km) Brightness Sun altitude
Rises 06:20:21 0° 237° (WSW) 3,646 10.0 7.8°
Reaches altitude 10° 06:22:57 10° 236° (SW) 2,712 9.4 8.4°
Maximum altitude 06:29:31 79° 149° (SSE) 1,019 8.0 10.1°
Drops below altitude 10° 06:36:25 10° 63° (ENE) 2,845 11.2 11.8°
Sets 06:39:13 0° 62° (ENE) 3,836 11.7 12.5°
